Regional Weather Roundup
Issued by NWS

Home | Current Version | Previous Version | Text Only | Print | Product List | Glossary On
Versions: 1 2 3 4 5 6 7 8 9 10 11 12 13 14 15 16 17 18 19 20 21 22 23 24 25 26 27 28 29 30 31 32 33 34 35 36 37 38 39 40 41 42 43 44 45 46 47 48 49 50
000
ASUS43 KLSX 120607
RWRMO

WEATHER SUMMARY FOR MISSOURI
NATIONAL WEATHER SERVICE SPRINGFIELD MO
100 AM CDT SAT JUL 12 2014

NOTE: "FAIR" INDICATES FEW OR NO CLOUDS BELOW 12,000 FEET WITH NO
       SIGNIFICANT WEATHER AND/OR OBSTRUCTIONS TO VISIBILITY.
       CURRENT SKY AND/OR WEATHER CONDITIONS ARE NOT AVAILABLE FOR
       CHILLICOTHE AND FARMINGTON.

MOZ001>031-035>038-043-044-053-054-120700-
...NORTHERN AND WESTERN MISSOURI...

CITY           SKY/WX    TMP DP  RH WIND       PRES   REMARKS
KANSAS CTY INT PTCLDY    79  70  74 S14       30.06F
6HR MIN TEMP:  79; 6HR MAX TEMP:  87;

KANSAS C DTWN  PTCLDY    82  70  66 S10       30.05S
6HR MIN TEMP:  82; 6HR MAX TEMP:  90;

LEE`S SUMMIT   PTCLDY    79  70  74 SW9       30.08S
6HR MIN TEMP:  79; 6HR MAX TEMP:  88;

ST JOSEPH      PTCLDY    79  71  76 SW7       30.03F
6HR MIN TEMP:  79; 6HR MAX TEMP:  87;

CHILLICOTHE      N/A     81  73  76 S6        30.05F
6HR MIN TEMP:  81; 6HR MAX TEMP:  87;

KIRKSVILLE     CLEAR     73  71  93 S6        30.05F FOG
6HR MIN TEMP:  72; 6HR MAX TEMP:  82;


$$
MOZ066>068-077>081-088>096-101>105-120700-
...SOUTHWEST MISSOURI...

CITY           SKY/WX    TMP DP  RH WIND       PRES   REMARKS
SPRINGFIELD    CLEAR     76  70  82 S8        30.14S
6HR MIN TEMP:  75; 6HR MAX TEMP:  87;

JOPLIN         CLEAR     76  70  82 S9        30.12S
6HR MIN TEMP:  76; 6HR MAX TEMP:  88;


$$
MOZ032>034-039>042-045>050-055>058-069>072-120700-
...CENTRAL MISSOURI...

CITY           SKY/WX    TMP DP  RH WIND       PRES   REMARKS
COLUMBIA       PTCLDY    78  74  87 S8        30.09S
6HR MIN TEMP:  77; 6HR MAX TEMP:  86;

ROLLA          PTCLDY    77  72  84 S10       30.11F
6HR MIN TEMP:  77; 6HR MAX TEMP:  85;

SEDALIA        PTCLDY    80  73  79 SW10      30.09S
6HR MIN TEMP:  79; 6HR MAX TEMP:  89;

WHITEMAN AFB   PTCLDY    76  67  74 SW8       30.07F
OSAGE BEACH    PTCLDY    79  72  78 S6        30.10F

$$
MOZ051-052-059>065-120700-
...EAST CENTRAL MISSOURI...

CITY           SKY/WX    TMP DP  RH WIND       PRES   REMARKS
ST LOUIS INTL  CLOUDY    83  71  67 SW9       30.11R
6HR MIN TEMP:  83; 6HR MAX TEMP:  88;

SPIRIT OF STL  MOCLDY    80  71  74 S5        30.09R
6HR MIN TEMP:  80; 6HR MAX TEMP:  87;

ST CHARLES     CLOUDY    80  71  74 S3        30.09R
6HR MIN TEMP:  78; 6HR MAX TEMP:  85;


$$
MOZ072>076-082>087-097>100-106>115-120700-
...SOUTH CENTRAL AND SOUTHEAST MISSOURI...

CITY           SKY/WX    TMP DP  RH WIND       PRES   REMARKS
CAPE GIRARDEAU CLEAR     74  68  81 CALM      30.13S
6HR MIN TEMP:  74; 6HR MAX TEMP:  87;

FARMINGTON     CLEAR     73  70  88 S6        30.16F
6HR MIN TEMP:  73; 6HR MAX TEMP:  82;

POPLAR BLUFF   PTCLDY    76  71  85 CALM      30.14R
6HR MIN TEMP:  75; 6HR MAX TEMP:  86;

WEST PLAINS    PTCLDY    76  73  91 S3        30.17F
6HR MIN TEMP:  76; 6HR MAX TEMP:  84;


$$



USA.gov is the U.S. government's official web portal to all federal, state and local government web resources and services.